This is the latest recevied weather packets stored in our database for station/object KE5QKR. If no packets are shown the sender has not sent any weather packets the latest 10 day(s).
| Time | Temp. | Humidity | Pressure | Rain* | Wind** | Luminosity | Snow |
|---|---|---|---|---|---|---|---|
| 1777553200 | 19.44° C | 99% | 1010.6 hPa | 0 mm | - | 89 W/m² | - |
| 1777552897 | 19.44° C | 99% | 1010.4 hPa | 0 mm | - | 75 W/m² | - |
| 1777552592 | 19.44° C | 99% | 1010.6 hPa | 0 mm | - | 50 W/m² | - |
| 1777552289 | 18.89° C | 99% | 1010.1 hPa | 0 mm | - | 43 W/m² | - |
| 1777551985 | 18.89° C | 99% | 1010.2 hPa | 0 mm | - | 42 W/m² | - |
| 1777551683 | 18.89° C | 99% | 1010.3 hPa | 0 mm | - | 37 W/m² | - |
| 1777551380 | 18.89° C | 99% | 1010.1 hPa | 0 mm | - | 38 W/m² | - |
| 1777551077 | 18.89° C | 99% | 1010 hPa | 1.78 mm | - | 28 W/m² | - |
| 1777550774 | 18.89° C | 99% | 1010 hPa | 1.78 mm | - | 32 W/m² | - |
| 1777550470 | 18.89° C | 99% | 1010.1 hPa | 0 mm | - | 38 W/m² | - |
| 1777550166 | 18.89° C | 99% | 1010.2 hPa | 0 mm | - | 47 W/m² | - |
| 1777549863 | 18.89° C | 99% | 1010 hPa | 0 mm | - | 41 W/m² | - |
| 1777549559 | 18.89° C | 99% | 1010.1 hPa | 0 mm | - | 35 W/m² | - |
| 1777549255 | 18.89° C | 99% | 1009.7 hPa | 0 mm | - | 24 W/m² | - |
| 1777548951 | 18.89° C | 99% | 1009.7 hPa | 0 mm | - | 16 W/m² | - |
| 1777548649 | 18.89° C | 99% | 1009.7 hPa | 0 mm | - | 10 W/m² | - |
| 1777548345 | 18.89° C | 99% | 1009.5 hPa | 0 mm | - | 6 W/m² | - |
| 1777548043 | 18.33° C | 99% | 1009.5 hPa | 0 mm | - | 4 W/m² | - |
| 1777547738 | 18.33° C | 99% | 1009.2 hPa | 0 mm | - | 2 W/m² | - |
| 1777547435 | 18.33° C | 99% | 1009.2 hPa | 0 mm | - | 1 W/m² | - |
| 1777547133 | 18.33° C | 99% | 1009.1 hPa | 0 mm | - | 0 W/m² | - |
| 1777546830 | 18.89° C | 99% | 1008.9 hPa | 0 mm | - | 0 W/m² | - |
| 1777546526 | 18.33° C | 99% | 1008.8 hPa | 0 mm | - | 0 W/m² | - |
| 1777546223 | 18.33° C | 99% | 1009 hPa | 0 mm | - | 0 W/m² | - |
| 1777545920 | 18.89° C | 99% | 1008.9 hPa | 0 mm | - | 0 W/m² | - |
* Rain latest hour (hover to see other rain measurements)
** Current wind speed in m/s (hover to see current wind gust speed)